Volver al catálogo

STARLINK-1319

ActivoComunicacionesVLEO
NORAD 45379·PAYLOAD·🇺🇸 United States

Lanzado Mar 18, 2020 desde Cape Canaveral Space Force Station

Loading…

Próximos Pases (próximas 24 horas)

TLE

ActualizadoSource: CelesTrak SupGP

Época: Sep 14, 2026, 20:58 UTC

1 45379C 20019V   26257.87409722  .01345700  00000+0  68855-3 0  2572
2 45379  53.0212 258.7564 0005386  37.5687 285.9040 16.19713611    13

Sigue STARLINK-1319 en tiempo real con AllMySat

Download on the App Store